Location: Bush Observatory
(40.2653°N, 94.3194°W)
Time: 08:48:05
(UTC-05:00)

JAS-2 - Visible Passes

Search period start: 27 September 2016 00:00
Search period end: 07 October 2016 00:00
Orbit: 801 x 1321 km, 98.6° (Epoch: 25 September)

Date Brightness Start Highest point End Pass type
(mag) Time Alt. Az. Time Alt. Az. Time Alt. Az.
27 Sep 12.1 00:44:29 10° NNE 00:46:11 17° NNE 00:46:11 17° NNE visible
27 Sep 11.8 02:29:48 10° N 02:32:40 22° NNW 02:32:40 22° NNW visible
28 Sep 11.9 01:34:22 10° N 01:36:52 23° N 01:36:52 23° N visible
28 Sep 12.1 03:21:16 10° NNW 03:23:19 15° NNW 03:23:19 15° NNW visible
29 Sep 12.2 00:39:42 10° NNE 00:41:02 16° NNE 00:41:02 16° NNE visible
29 Sep 11.9 02:24:54 10° N 02:27:31 21° NNW 02:27:31 21° NNW visible
30 Sep 12.0 01:29:31 10° NNE 01:31:42 21° N 01:31:42 21° N visible
30 Sep 12.1 03:16:16 10° NNW 03:18:10 15° NNW 03:18:10 15° NNW visible
01 Oct 12.3 00:34:56 10° NNE 00:35:52 14° NNE 00:35:52 14° NNE visible
01 Oct 12.0 02:20:00 10° N 02:22:22 20° N 02:22:22 20° N visible
02 Oct 12.1 01:24:41 10° NNE 01:26:33 19° NNE 01:26:33 19° NNE visible
02 Oct 12.1 03:11:17 10° NNW 03:13:00 15° NNW 03:13:00 15° NNW visible
03 Oct 12.4 00:30:09 10° NNE 00:30:42 12° NNE 00:30:42 12° NNE visible
03 Oct 12.0 02:15:07 10° N 02:17:12 19° N 02:17:12 19° N visible
04 Oct 12.2 01:19:51 10° NNE 01:21:21 17° NNE 01:21:21 17° NNE visible
04 Oct 12.1 03:06:19 10° NNW 03:07:50 14° NNW 03:07:50 14° NNW visible
05 Oct 12.5 00:25:24 10° NNE 00:25:32 11° NNE 00:25:32 11° NNE visible
05 Oct 12.1 02:10:14 10° N 02:12:01 18° N 02:12:01 18° N visible
06 Oct 12.3 01:15:02 10° NNE 01:16:11 15° NNE 01:16:11 15° NNE visible
06 Oct 12.2 03:01:23 10° NNW 03:02:39 14° NNW 03:02:39 14° NNW visible
